Home > Time Zones > World Clock > Weather > Serbia > Niš > Past weeks

Flag for Serbia Weather past 2 weeks in Niš, Serbia

Now
59 °F

Scattered clouds.


Feels Like: 58 °F
Forecast: 44 / 51 °F
Wind: 8 mph from Northwest

Location: Nis Airport

Current Time: Mar 27, 2015 at 12:12:45 PM

Latest Report: Mar 27, 2015 at 11:30 AM


Visibility: N/A

Pressure: 29.65 "Hg

Humidity: 77%

Dew point: 52 °F

Location of NišLocation

Historic Weather in Niš — Graph

°F

Niš temperature yesterday

Maximum temperature yesterday: 68 °F (at 2:00 PM)
Minimum temperature yesterday: 45 °F (at 3:00 AM)
Average temperature yesterday: 56 °F

Past Weeks' High & Low Weather Summary

 TemperatureHumidityPressure
High68 °F (Mar 26, 2:00 PM)100% (Mar 15, 7:30 AM)30.54 "Hg (Mar 15, 7:30 AM)
Low25 °F (Mar 20, 3:00 AM)16% (Mar 21, 6:00 PM)29.65 "Hg (Mar 27, 10:30 AM)
Average46 °F64%30.15 "Hg
* Reported Mar 12 11:00 AM — Mar 27 11:00 AM, Niš, Weather by CustomWeather, © 2015

Note: Actual official high and low records may vary slightly from our data, if they occured in-between our weather recording intervals... More about our weather records

Advertising

Niš weather history for previous 24 hours

 ConditionsComfort  
Time TempWeatherWind HumidityBarometerVisibility
11:00 AM
Fri, Mar 27
61 °FScattered clouds.5 mph68%29.65 "HgN/A
10:30 AM59 °FScattered clouds.6 mph72%29.65 "HgN/A
10:00 AM57 °FScattered clouds.6 mph77%29.68 "HgN/A
9:30 AM57 °FScattered clouds.6 mph77%29.68 "HgN/A
9:00 AM57 °FLight rain. Scattered clouds.1 mph77%29.68 "HgN/A
8:30 AM55 °FLight rain. Scattered clouds.3 mph82%29.68 "HgN/A
8:00 AM54 °FLight rain. Scattered clouds.5 mph88%29.68 "HgN/A
7:30 AM54 °FLight rain. Scattered clouds.2 mph94%29.68 "HgN/A
7:00 AM52 °FLight rain. Scattered clouds.1 mph100%29.71 "HgN/A
6:30 AM50 °FLight rain. Scattered clouds.1 mph100%29.71 "HgN/A
6:00 AM50 °FLight rain. Scattered clouds.No wind94%29.71 "Hg4 mi
5:30 AM50 °FLight rain. Scattered clouds.2 mph100%29.71 "HgN/A
5:00 AM50 °FLight rain. Passing clouds.1 mph100%29.71 "HgN/A
4:00 AM52 °FRain. Passing clouds.2 mph94%29.71 "HgN/A
3:30 AM52 °FRain. Passing clouds.3 mph94%29.74 "HgN/A
3:00 AM52 °FLight rain. Passing clouds.6 mph88%29.74 "HgN/A
2:30 AM52 °FLight rain. Passing clouds.6 mph88%29.74 "HgN/A
2:00 AM54 °FLight rain. Passing clouds.3 mph77%29.74 "HgN/A
1:30 AM54 °FLight rain. Passing clouds.3 mph77%29.77 "HgN/A
1:00 AM54 °FPassing clouds.3 mph77%29.77 "HgN/A
12:30 AM54 °FPassing clouds.3 mph77%29.77 "HgN/A
12:00 AM54 °FPassing clouds.2 mph72%29.80 "HgN/A
11:30 PM
Thu, Mar 26
54 °FClear.2 mph72%29.80 "Hg10 mi
11:00 PM54 °FClear.2 mph72%29.80 "Hg10 mi
10:00 PM55 °FClear.3 mph72%29.80 "Hg10 mi
9:30 PM55 °FPassing clouds.5 mph72%29.80 "HgN/A
9:00 PM55 °FClear.3 mph72%29.83 "Hg10 mi
8:30 PM57 °FPassing clouds.3 mph67%29.83 "HgN/A
8:00 PM57 °FPassing clouds.3 mph67%29.83 "HgN/A
7:30 PM57 °FPassing clouds.3 mph63%29.86 "HgN/A
7:00 PM57 °FPassing clouds.3 mph63%29.83 "HgN/A
6:30 PM57 °FPassing clouds.5 mph67%29.83 "HgN/A
6:00 PM61 °FPassing clouds.6 mph59%29.86 "HgN/A
5:30 PM63 °FScattered clouds.9 mph56%29.86 "HgN/A
5:00 PM64 °FScattered clouds.10 mph52%29.86 "HgN/A
4:30 PM64 °FScattered clouds.10 mph49%29.83 "HgN/A
4:00 PM66 °FPassing clouds.12 mph46%29.86 "HgN/A
3:30 PM66 °FPassing clouds.9 mph46%29.86 "HgN/A
3:00 PM68 °FPassing clouds.13 mph43%29.86 "HgN/A
2:30 PM66 °FPassing clouds.10 mph46%29.86 "HgN/A
2:00 PM68 °FPassing clouds.10 mph43%29.89 "HgN/A
1:30 PM66 °FPassing clouds.8 mph46%29.89 "HgN/A
1:00 PM66 °FPassing clouds.8 mph46%29.89 "HgN/A
12:30 PM66 °FPassing clouds.9 mph46%29.92 "HgN/A
12:00 PM64 °FPassing clouds.8 mph49%29.92 "HgN/A
Weather by CustomWeather, © 2015

See weather overviewHow to use our weather pages